Regional Weather Roundup
Issued by NWS Wakefield, VA

Home | Current Version | Previous Version | Text Only | Print | Product List | Glossary On
Versions: 1 2 3 4 5 6 7 8 9 10 11 12 13 14 15 16 17 18 19 20 21 22 23 24 25 26 27 28 29 30 31 32 33 34 35 36 37 38 39 40 41 42 43 44 45 46 47 48 49 50
000
ASUS41 KAKQ 110910
RWRAKQ

REGIONAL WEATHER ROUNDUP
NATIONAL WEATHER SERVICE WAKEFIELD VA
500 AM EDT FRI JUL 11 2014

Note: "fair" indicates few or no clouds below 12,000 feet with no
significant weather and/or obstructions to visibility. * = Denotes
station may not report precipitation (e.g., rain,snow,etc.),
thunder or fog.

VAZ042-051-052>054-056-111000-
NORTHERN VIRGINIA

CITY           SKY/WX    TMP DP  RH WIND       PRES   REMARKS
WASH NATIONAL  PTCLDY    70  64  81 NW3       30.13S
DULLES         CLEAR     64  62  93 NW3       30.15R
FORT BELVOIR   CLEAR     66  65  96 NW2       30.14R
QUANTICO       RAIN      66  64  94 NW8       30.14S
FREDERICKSBRG* MOCLDY    68  67  98 CALM      30.13S
STAFFORD*      CLOUDY    64  64 100 NW3       30.18S FOG
WARRENTON      FOG       63  63 100 CALM      30.15R VSB 1/4
CULPEPER*      CLEAR    N/A N/A N/A CALM      30.15S FOG
MANASSAS*        N/A    N/A N/A N/A CALM      30.14
LEESBURG*      CLEAR     64  64 100 CALM      30.16R
WINCHESTER     MOCLDY    64  63  94 CALM      30.17R
$$

VAZ048-049-060>072-079>083-111000-
CENTRAL AND SOUTH CENTRAL VIRGINIA...AND NORTH CENTRAL NORTH CAROLINA

CITY           SKY/WX    TMP DP  RH WIND       PRES   REMARKS
RICHMOND       MOCLDY    70  66  88 N3        30.12R FOG
CHESTERFIELD*  CLOUDY    66  57  72 CALM      30.14R
HANOVER        CLOUDY    67  65  93 CALM      30.14S
TAPPAHANNOCK*  CLEAR     69  66  90 CALM      30.13R FOG
CHARLOTTSVILLE CLEAR     65  63  93 CALM      30.15R FOG
ORANGE*          N/A     63  63 100 CALM      30.16S FOG
LOUISA*        CLEAR     66  63  88 CALM      30.13S
FARMVILLE*     FOG       66  66 100 CALM      30.12S VSB 1/4
SOUTH HILL*    FOG       70  70 100 CALM      30.18S VSB 1/4
ROANOKE RAPIDS FOG       59  59 100 CALM      30.12R VSB 1/4
RALEIGH        MOCLDY    70  68  93 CALM      30.12S
$$

VAZ088>098-111000-
SOUTHEAST VIRGINIA

CITY           SKY/WX    TMP DP  RH WIND       PRES   REMARKS
NORFOLK        CLOUDY    72  69  90 CALM      30.11R
VIRGINIA BEACH CLOUDY    72  70  93 S5        30.09S
NORFOLK NAVAL  CLOUDY    73  69  87 CALM      30.12S
WEST POINT*    MOCLDY    70  67  92 CALM      30.13R
NEWPORT NEWS   MOCLDY    72  67  84 CALM      30.11S HAZE
LANGLEY AFB    MOCLDY    70  70 100 SW2       30.11R FOG
FORT EUSTIS    MOCLDY    70 N/A N/A E1        30.10R
WILLIAMSBURG*  MOCLDY    70  70 100 CALM      30.12R
FRANKLIN*      CLOUDY    70 N/A N/A CALM      30.11S
WAKEFIELD      FOG       69  67  93 CALM      30.12S VSB 1/4
$$

VAZ020-022-025-037-045-111000-
WESTERN AND SOUTHWEST VIRGINIA

CITY           SKY/WX    TMP DP  RH WIND       PRES   REMARKS
STAUNTON*      FOG       64  63  94 CALM      30.20S VSB 1/4
HOT SPRINGS VA CLEAR     56  50  79 CALM      30.28S
LYNCHBURG      PTCLDY    64  63  96 NE3       30.16S
DANVILLE       FOG       70  68  93 NE5       30.14R VSB 1/4
MARTINSVILLE   CLOUDY    70  70 100 NW6       30.17S FOG
ROANOKE        CLEAR     65  63  93 N10       30.18R
BLACKSBURG     CLEAR     63  63 100 CALM      30.22S FOG
DUBLIN*        MOCLDY    62  62 100 CALM      30.21S FOG
MARION*        CLEAR     58  58 100 CALM      30.24S FOG
HILLSVILLE*    FOG       60  60 100 CALM      30.22S VSB 1/4
RICHLANDS*     SUNNY     66  60  81 CALM      30.22S
WISE*          CLEAR     61  59  94 CALM      30.23S
ABINGDON*      CLEAR     65  64  93 E5        30.18S
$$

MDZ021>025-VAZ099-100-111000-
SOUTHERN MARYLAND AND THE DELMARVA PENINSULA

CITY           SKY/WX    TMP DP  RH WIND       PRES   REMARKS
PATUXENT RIVER PTCLDY    69  67  93 CALM      30.10F
BAY BRIDGE APT   N/A     68  64  88 N5        30.12S
LEONARDTOWN    PTCLDY    68  66  94 CALM      30.13S
DOVER          CLOUDY    70  70 100 NW6       30.10S
GEORGETOWN     CLOUDY    71  69  93 E7        30.11S FOG
EASTON         PTCLDY    70  70 100 NE3       30.16R FOG
CAMBRIDGE      CLOUDY    72  68  88 CALM      30.11R
SALISBURY      CLOUDY    72  68  87 NE5       30.11S
OCEAN CITY     CLOUDY    70  68  93 NW5       30.10S FOG
WALLOPS ISLAND MOCLDY    70  68  93 N5        30.11S FOG
ACCOMACK*        N/A     68  66  94 CALM      30.10S FOG
$$

NCZ012>017-030>032-111000-
EASTERN NORTH CAROLINA

CITY           SKY/WX    TMP DP  RH WIND       PRES   REMARKS
ELIZABETH CITY CLOUDY    72  70  93 CALM      30.10F
AHOSKIE*       CLOUDY    69  68  96 CALM      30.12R VSB 1/4
EDENTON*       CLOUDY    70  69  98 CALM      30.11S FOG
CURRITUCK*     CLOUDY    72  69  91 CALM      30.11F
KILL DEVIL HLS CLOUDY    72  71  96 SW3       30.09S
MANTEO         NOT AVBL
CAPE HATTERAS  LGT RAIN  76  72  87 S6        30.11S
GOLDSBORO      MOCLDY    71  71  99 NE3       30.09S
WASHINGTON     CLOUDY   N/A N/A N/A CALM      30.12S
GREENVILLE     MOCLDY    72  70  94 CALM      30.12F
NEW BERN       CLOUDY    73  71  93 CALM      30.11F
WILMINGTON     CLOUDY    73  71  93 N3        30.09R
$$

VAZ048-111000-
ELSEWHERE

CITY           SKY/WX    TMP DP  RH WIND       PRES   REMARKS
HARRISBURG PA  MOCLDY    67  64  90 N6        30.15S
BALTIMORE      PTCLDY    66  63  90 N3        30.14R
ANNAPOLIS      PTCLDY    71  68  90 N7        30.12R
ANDREWS AFB    MOCLDY    67  67  99 N5        30.13S
WILMINGTON DE  PTCLDY    68  67  96 N5        30.14S
PHILADELPHIA   PTCLDY    72  63  73 N5        30.14R
WILDWOOD NJ*   MOCLDY    68  64  88 N5        30.12S
ATLANTIC CITY  FOG       66  66 100 N5        30.13R VSB 1/4
HENDERSON NC   MOCLDY    69  67  93 CALM      30.13S
GREENSBORO     PTCLDY    68  67  96 CALM      30.13S
ROCKY MOUNT    CLOUDY    70  69  97 CALM      30.11S FOG
FAYETTEVILLE   CLOUDY    71  70  96 SE3       30.10R
CHARLOTTE      CLOUDY    70  66  88 N3        30.11S
$$

VAZ100-111000-
MARINE

STATION/POSITION TIME  TEMP    WIND        PRES    WAVE   SWELL
                       AIR SEA DIR/SP/G            HT/PER HT/PER
                 (UTC) (F)     (DEG/KT/KT) (MB)    (FT/S) (FT/S)
44066 TX TWR #4  0900   70 70   CALM  /  2 1019.4R   3/ 6   3/ 6
CAPE MAY NJ      0900   69 69  100/  1/  2 1019.3R
LEWES DE         0900   68 65   80/  2/  3 1018.7F
15NM E FENWICK I 0900   69 73              1019.1F   2/ 7
OCEAN-CITY-INLET 0900   69 71  310/  5/  6 1018.8S
WACHAPREAGUE VA  0900   70 77   CALM  /  3 1019.1F
THOMAS POINT MD  0900   73 78   20/ 11/ 13 1020.4R
GOOSES REEF MD   0900   73     130/  4/  6 1020.0R
COVE POINT MD    0900   72     120/  7/  8 1019.2F
SOLOMONS ISLAND  0900      79                N/A
BISHOPS HEAD MD  0900   71 77   60/  7/  8 1019.1R
PINEY POINT MD   0900           40/  3/  5   N/A
POTOMAC MD       0900   74      70/  6/  8 1018.4S
CAMBRIDGE MD     0900   70 80   90/  5/  6 1019.0S
LEWISETTA VA     0900   74 80   60/  5/  6 1019.0R
RAPPAHANNOCK LGT 0900          300/  5/  6 1019.8R
STINGRAY PT      0900   74     320/  8/ 10 1018.5R
YORK RVR RNG VA  0900   73     300/  2/  3 1018.8R
YORKTOWN VA      0900   71 79  200/  3/  3 1019.1R
JAMESTOWN VA     0900   70     290/  4/  6   N/A
DOMINION TERM VA 0900   72     250/  4/  5 1019.4S
KIPTOPEKE VA     0900      79   80/  2/  3   N/A
CHES BAY BRIDGE  0900   73 78  260/  2/  6 1018.8F
CAPE HENRY VA    0900   72     320/  5/  5 1018.5R
WILLOUBY STN VA  0900   73     310/  6/  7 1018.7S
S CRANEY ISL VA  0900          280/  3/  4 1019.4R
CAPE HENRY BUOY  0900      75                N/A     3/ 6
1ST LANDING BUOY 0900   74     290/  6/  8 1019.3R
CAPE CHARLES BUO 0900      66                N/A     2/ 6
OFFSHORE WE BUOY 0900      74                N/A     3/ 8
64NM E OF VA BCH 0900   75 75  250/  6/  8 1018.9F   3/ 6   2/ 6
DUCK PIER NC     0900   72 63   20/  3/  3 1018.7R
44056 DUCK FRF   0900                        N/A     2/ 6
OREGON INLET NC  0900   76 83  230/  9/  9 1019.6R
HATTERAS NC      0900   76 83  150/  5/  7 1020.1F
DIAMOND SHLS NC  0900          VRB  6/  8  1020.0F   3/ 5   2/ 5
CAPE LOOKOUT NC  0800   75     230/  6/  7 1019.4F
$$


USA.gov is the U.S. government's official web portal to all federal, state and local government web resources and services.